ARG1780 SABE-SARI

Flight info

Callsign ARG1780
Flight time 1h 27m
Altitude 35000
Route LANDA4B LANDA UN785 GEMSU UT667 NAIDE NAIDE2Q
Aircraft B738/M-SDE2E3FGHIRWXY/LB1

Departure

Time 2026-04-26 19:08
Airport Aeroparque Jorge Newbery (SABE)

Arrival

Time 2026-04-26 20:36
Airport Cataratas Del Iguazú International Airport (SARI)
Time Latitude Longitude Altitude Speed Heading
2026-04-26 17:59 -34.55802 -58.41445 30 ft 0 kts 207°
2026-04-26 18:56 -34.55790 -58.41438 28 ft 3 kts 207°
2026-04-26 18:56 -34.55773 -58.41426 24 ft 3 kts 225°
2026-04-26 18:56 -34.55765 -58.41416 24 ft 2 kts 293°
2026-04-26 18:56 -34.55770 -58.41405 30 ft 3 kts 304°
2026-04-26 18:57 -34.55779 -58.41388 25 ft 1 kts 304°
2026-04-26 18:57 -34.55781 -58.41386 25 ft 0 kts 304°
2026-04-26 18:59 -34.55780 -58.41387 25 ft 1 kts 304°
2026-04-26 19:00 -34.55761 -58.41421 28 ft 6 kts 305°
2026-04-26 19:00 -34.55738 -58.41467 25 ft 6 kts 297°
2026-04-26 19:00 -34.55725 -58.41498 26 ft 6 kts 297°
2026-04-26 19:00 -34.55726 -58.41546 24 ft 6 kts 236°
2026-04-26 19:01 -34.55759 -58.41579 24 ft 6 kts 216°
2026-04-26 19:01 -34.55795 -58.41592 28 ft 6 kts 153°
2026-04-26 19:01 -34.55826 -58.41535 26 ft 11 kts 117°
2026-04-26 19:01 -34.55869 -58.41434 27 ft 16 kts 117°
2026-04-26 19:02 -34.55925 -58.41306 28 ft 17 kts 120°
2026-04-26 19:02 -34.55994 -58.41190 24 ft 17 kts 127°
2026-04-26 19:02 -34.56062 -58.41081 27 ft 16 kts 127°
2026-04-26 19:02 -34.56106 -58.41011 25 ft 16 kts 127°
2026-04-26 19:03 -34.56170 -58.40885 28 ft 8 kts 112°
2026-04-26 19:03 -34.56177 -58.40823 24 ft 8 kts 114°
2026-04-26 19:03 -34.56210 -58.40761 24 ft 10 kts 124°
2026-04-26 19:03 -34.56255 -58.40681 27 ft 12 kts 123°
2026-04-26 19:04 -34.56300 -58.40599 25 ft 12 kts 125°
2026-04-26 19:04 -34.56357 -58.40533 27 ft 11 kts 138°
2026-04-26 19:04 -34.56402 -58.40483 24 ft 7 kts 138°
2026-04-26 19:04 -34.56412 -58.40473 24 ft 0 kts 138°
2026-04-26 19:06 -34.56425 -58.40458 27 ft 7 kts 138°
2026-04-26 19:06 -34.56475 -58.40404 24 ft 10 kts 138°
2026-04-26 19:07 -34.56535 -58.40393 27 ft 10 kts 216°
2026-04-26 19:07 -34.56560 -58.40436 26 ft 5 kts 290°
2026-04-26 19:07 -34.56556 -58.40445 26 ft 0 kts 303°
2026-04-26 19:07 -34.56553 -58.40450 28 ft 3 kts 303°
2026-04-26 19:08 -34.56464 -58.40612 28 ft 57 kts 304°
2026-04-26 19:08 -34.56099 -58.41265 27 ft 125 kts 304°
2026-04-26 19:08 -34.55510 -58.42292 208 ft 163 kts 303°
2026-04-26 19:08 -34.54869 -58.43456 977 ft 164 kts 295°
2026-04-26 19:09 -34.54043 -58.44465 1675 ft 190 kts 323°
2026-04-26 19:09 -34.52608 -58.44839 1871 ft 237 kts 355°
2026-04-26 19:09 -34.50923 -58.44267 2272 ft 264 kts 22°
2026-04-26 19:09 -34.49313 -58.43093 2808 ft 278 kts 27°
2026-04-26 19:10 -34.47635 -58.41821 3435 ft 291 kts 27°
2026-04-26 19:10 -34.45900 -58.40499 4286 ft 292 kts 27°
2026-04-26 19:10 -34.44184 -58.39195 5067 ft 296 kts 27°
2026-04-26 19:10 -34.42418 -58.37873 5962 ft 299 kts 26°
2026-04-26 19:11 -34.40616 -58.36598 6800 ft 299 kts 20°
2026-04-26 19:11 -34.38652 -58.36026 7565 ft 286 kts 350°
2026-04-26 19:11 -34.36767 -58.36462 8368 ft 274 kts 331°
2026-04-26 19:11 -34.35114 -58.37542 9173 ft 267 kts 318°
2026-04-26 19:12 -34.33572 -58.38811 9950 ft 269 kts 316°
2026-04-26 19:12 -34.32011 -58.40135 10354 ft 286 kts 316°
2026-04-26 19:12 -34.30208 -58.41434 10515 ft 322 kts 333°
2026-04-26 19:12 -34.27891 -58.41902 10919 ft 348 kts 347°
2026-04-26 19:13 -34.25467 -58.42122 11537 ft 354 kts 346°
2026-04-26 19:13 -34.23008 -58.42379 12315 ft 355 kts 344°
2026-04-26 19:13 -34.20547 -58.42690 13140 ft 355 kts 342°
2026-04-26 19:13 -34.18107 -58.43053 13903 ft 356 kts 340°
2026-04-26 19:14 -34.15627 -58.43464 14577 ft 358 kts 339°
2026-04-26 19:14 -34.13184 -58.43894 15242 ft 360 kts 338°
2026-04-26 19:14 -34.10681 -58.44345 15936 ft 362 kts 337°
2026-04-26 19:14 -34.09009 -58.44628 16394 ft 365 kts 338°
2026-04-26 19:15 -34.05648 -58.45158 17216 ft 369 kts 337°
2026-04-26 19:15 -34.03093 -58.45551 17919 ft 370 kts 337°
2026-04-26 19:15 -34.00559 -58.45941 18530 ft 372 kts 337°
2026-04-26 19:15 -33.97970 -58.46345 19054 ft 376 kts 337°
2026-04-26 19:16 -33.95363 -58.46753 19575 ft 379 kts 337°
2026-04-26 19:16 -33.92744 -58.47164 20097 ft 382 kts 337°
2026-04-26 19:16 -33.90090 -58.47581 20615 ft 385 kts 338°
2026-04-26 19:16 -33.87402 -58.48004 21115 ft 390 kts 337°
2026-04-26 19:17 -33.84714 -58.48431 21496 ft 396 kts 338°
2026-04-26 19:17 -33.81962 -58.48864 22018 ft 397 kts 338°
2026-04-26 19:17 -33.79227 -58.49289 22578 ft 399 kts 338°
2026-04-26 19:17 -33.76454 -58.49721 23046 ft 402 kts 338°
2026-04-26 19:18 -33.73687 -58.50154 23487 ft 406 kts 338°
2026-04-26 19:18 -33.70862 -58.50596 23877 ft 409 kts 339°
2026-04-26 19:18 -33.68064 -58.51031 24302 ft 410 kts 339°
2026-04-26 19:18 -33.65221 -58.51472 24728 ft 412 kts 339°
2026-04-26 19:19 -33.62365 -58.51916 25071 ft 414 kts 339°
2026-04-26 19:19 -33.59526 -58.52358 25445 ft 416 kts 339°
2026-04-26 19:19 -33.56618 -58.52810 25828 ft 418 kts 339°
2026-04-26 19:19 -33.53759 -58.53254 26218 ft 420 kts 339°
2026-04-26 19:20 -33.50840 -58.53707 26605 ft 421 kts 340°
2026-04-26 19:20 -33.48888 -58.54010 26853 ft 423 kts 340°
2026-04-26 19:20 -33.45022 -58.54610 27326 ft 425 kts 340°
2026-04-26 19:20 -33.42071 -58.55067 27681 ft 427 kts 340°
2026-04-26 19:21 -33.39112 -58.55526 27993 ft 429 kts 340°
2026-04-26 19:21 -33.36172 -58.55981 28349 ft 430 kts 340°
2026-04-26 19:21 -33.33212 -58.56438 28690 ft 432 kts 340°
2026-04-26 19:21 -33.30213 -58.56902 29017 ft 434 kts 340°
2026-04-26 19:22 -33.27205 -58.57367 29342 ft 435 kts 340°
2026-04-26 19:22 -33.24213 -58.57829 29647 ft 437 kts 340°
2026-04-26 19:22 -33.21188 -58.58296 29944 ft 439 kts 340°
2026-04-26 19:22 -33.18151 -58.58763 30193 ft 438 kts 341°
2026-04-26 19:23 -33.15173 -58.59218 30616 ft 435 kts 341°
2026-04-26 19:23 -33.12170 -58.59678 31043 ft 432 kts 340°
2026-04-26 19:23 -33.09165 -58.60141 31354 ft 432 kts 340°
2026-04-26 19:23 -33.06194 -58.60600 31641 ft 432 kts 340°
2026-04-26 19:24 -33.03172 -58.60962 31964 ft 441 kts 346°
2026-04-26 19:24 -33.00081 -58.60797 32298 ft 455 kts 354°
2026-04-26 19:24 -32.93778 -58.58953 32897 ft 472 kts
2026-04-26 19:25 -32.90654 -58.57773 33179 ft 473 kts
2026-04-26 19:25 -32.88566 -58.56974 33358 ft 473 kts
2026-04-26 19:25 -32.84371 -58.55381 33754 ft 472 kts
2026-04-26 19:25 -32.81249 -58.54216 34023 ft 471 kts
2026-04-26 19:26 -32.78137 -58.53072 34253 ft 470 kts
2026-04-26 19:26 -32.75031 -58.51940 34482 ft 469 kts
2026-04-26 19:26 -32.71891 -58.50802 34695 ft 469 kts
2026-04-26 19:26 -32.68781 -58.49678 34871 ft 469 kts
2026-04-26 19:27 -32.62523 -58.47420 34919 ft 472 kts
2026-04-26 19:27 -32.56280 -58.45154 34916 ft 463 kts
2026-04-26 19:28 -32.50175 -58.42947 34935 ft 461 kts
2026-04-26 19:28 -32.44017 -58.40733 34908 ft 461 kts
2026-04-26 19:29 -32.37870 -58.38520 34927 ft 461 kts
2026-04-26 19:29 -32.31761 -58.36323 34945 ft 461 kts
2026-04-26 19:30 -32.25621 -58.34113 34942 ft 462 kts
2026-04-26 19:30 -32.20513 -58.32271 34946 ft 462 kts
2026-04-26 19:31 -32.13315 -58.29679 34948 ft 463 kts
2026-04-26 19:31 -32.07173 -58.27471 34942 ft 463 kts
2026-04-26 19:32 -32.01021 -58.25262 34938 ft 463 kts
2026-04-26 19:32 -31.94866 -58.23055 34938 ft 462 kts
2026-04-26 19:33 -31.88749 -58.20863 34940 ft 461 kts
2026-04-26 19:33 -31.82638 -58.18678 34949 ft 459 kts
2026-04-26 19:34 -31.76510 -58.16491 34941 ft 459 kts
2026-04-26 19:34 -31.70401 -58.14314 34945 ft 458 kts
2026-04-26 19:35 -31.64324 -58.12150 34937 ft 456 kts
2026-04-26 19:35 -31.58275 -58.09999 34936 ft 455 kts
2026-04-26 19:36 -31.53237 -58.08212 34940 ft 455 kts
2026-04-26 19:36 -31.46188 -58.05713 34949 ft 455 kts
2026-04-26 19:37 -31.40122 -58.03567 34903 ft 455 kts
2026-04-26 19:37 -31.34098 -58.01436 34927 ft 454 kts
2026-04-26 19:38 -31.28022 -57.99291 34955 ft 454 kts
2026-04-26 19:38 -31.21971 -57.97158 34936 ft 455 kts
2026-04-26 19:39 -31.15905 -57.95023 34957 ft 456 kts
2026-04-26 19:39 -31.09839 -57.92888 34934 ft 456 kts
2026-04-26 19:40 -31.03792 -57.90763 34934 ft 455 kts
2026-04-26 19:40 -30.97740 -57.88640 34939 ft 455 kts
2026-04-26 19:41 -30.91687 -57.86520 34943 ft 455 kts
2026-04-26 19:41 -30.86615 -57.84745 34924 ft 454 kts
2026-04-26 19:42 -30.79578 -57.82286 34934 ft 453 kts
2026-04-26 19:42 -30.73534 -57.80176 34936 ft 453 kts
2026-04-26 19:43 -30.67519 -57.78079 34938 ft 452 kts
2026-04-26 19:43 -30.61505 -57.75970 34870 ft 452 kts
2026-04-26 19:44 -30.55498 -57.73860 34925 ft 451 kts
2026-04-26 19:44 -30.49496 -57.71758 34938 ft 451 kts
2026-04-26 19:45 -30.43490 -57.69660 34933 ft 451 kts
2026-04-26 19:45 -30.37468 -57.67556 34933 ft 452 kts
2026-04-26 19:46 -30.31497 -57.65471 34937 ft 450 kts
2026-04-26 19:46 -30.25525 -57.62915 34922 ft 475 kts 13°
2026-04-26 19:47 -30.22672 -57.60848 34938 ft 489 kts 19°
2026-04-26 19:47 -30.21718 -57.60093 34943 ft 490 kts 20°
2026-04-26 19:47 -30.14298 -57.54027 34925 ft 491 kts 20°
2026-04-26 19:48 -30.08705 -57.49492 34924 ft 490 kts 20°
2026-04-26 19:48 -30.03134 -57.45048 34888 ft 487 kts 19°
2026-04-26 19:49 -29.97530 -57.40609 34920 ft 486 kts 19°
2026-04-26 19:49 -29.91948 -57.36200 34915 ft 486 kts 19°
2026-04-26 19:50 -29.86412 -57.31828 34920 ft 485 kts 19°
2026-04-26 19:50 -29.80836 -57.27427 34927 ft 485 kts 19°
2026-04-26 19:51 -29.75265 -57.23036 34869 ft 485 kts 19°
2026-04-26 19:51 -29.69734 -57.18681 34909 ft 484 kts 19°
2026-04-26 19:52 -29.64149 -57.14293 34912 ft 485 kts 19°
2026-04-26 19:52 -29.58591 -57.09932 34895 ft 486 kts 19°
2026-04-26 19:53 -29.53028 -57.05570 34921 ft 486 kts 19°
2026-04-26 19:53 -29.47447 -57.01202 34923 ft 487 kts 19°
2026-04-26 19:54 -29.41839 -56.96817 34926 ft 488 kts 19°
2026-04-26 19:54 -29.36228 -56.92436 34921 ft 488 kts 19°
2026-04-26 19:55 -29.30608 -56.88053 34921 ft 489 kts 19°
2026-04-26 19:55 -29.24988 -56.83677 34890 ft 488 kts 19°
2026-04-26 19:56 -29.19405 -56.79333 34910 ft 488 kts 19°
2026-04-26 19:56 -29.13798 -56.74979 34872 ft 487 kts 19°
2026-04-26 19:57 -29.08190 -56.70629 34914 ft 486 kts 19°
2026-04-26 19:57 -29.02608 -56.66307 34920 ft 485 kts 19°
2026-04-26 19:58 -28.97012 -56.61979 34918 ft 485 kts 19°
2026-04-26 19:58 -28.91426 -56.57662 34916 ft 485 kts 19°
2026-04-26 19:59 -28.85859 -56.53368 34912 ft 484 kts 19°
2026-04-26 19:59 -28.80277 -56.49074 34872 ft 483 kts 20°
2026-04-26 20:00 -28.74717 -56.44801 34911 ft 483 kts 20°
2026-04-26 20:00 -28.69148 -56.40528 34921 ft 483 kts 20°
2026-04-26 20:01 -28.64500 -56.36966 34917 ft 483 kts 20°
2026-04-26 20:01 -28.57980 -56.31975 34916 ft 484 kts 20°
2026-04-26 20:02 -28.53346 -56.28430 34903 ft 484 kts 20°
2026-04-26 20:02 -28.48667 -56.24854 34898 ft 484 kts 20°
2026-04-26 20:03 -28.41247 -56.19192 34910 ft 484 kts 20°
2026-04-26 20:03 -28.36561 -56.15623 34917 ft 484 kts 20°
2026-04-26 20:04 -28.30978 -56.11375 34916 ft 484 kts 20°
2026-04-26 20:04 -28.25384 -56.07124 34916 ft 484 kts 20°
2026-04-26 20:05 -28.19802 -56.02887 34861 ft 484 kts 20°
2026-04-26 20:05 -28.14216 -55.98650 34912 ft 482 kts 20°
2026-04-26 20:06 -28.08645 -55.94433 34916 ft 482 kts 20°
2026-04-26 20:06 -28.03065 -55.90214 34916 ft 482 kts 20°
2026-04-26 20:07 -27.97495 -55.86010 34918 ft 482 kts 20°
2026-04-26 20:07 -27.91933 -55.81814 34920 ft 482 kts 20°
2026-04-26 20:08 -27.86367 -55.77622 34891 ft 481 kts 21°
2026-04-26 20:08 -27.80785 -55.73422 34905 ft 481 kts 21°
2026-04-26 20:09 -27.75235 -55.69251 34919 ft 480 kts 21°
2026-04-26 20:09 -27.69701 -55.65097 34922 ft 480 kts 21°
2026-04-26 20:10 -27.64136 -55.60926 34918 ft 480 kts 21°
2026-04-26 20:10 -27.61445 -55.58663 34617 ft 490 kts 27°
2026-04-26 20:10 -27.58907 -55.55943 34033 ft 503 kts 35°
2026-04-26 20:11 -27.56493 -55.53065 33361 ft 504 kts 36°
2026-04-26 20:11 -27.54133 -55.50219 33009 ft 497 kts 37°
2026-04-26 20:11 -27.51769 -55.47364 32551 ft 494 kts 36°
2026-04-26 20:12 -27.47137 -55.41816 31733 ft 485 kts 36°
2026-04-26 20:12 -27.44802 -55.39043 31304 ft 481 kts 36°
2026-04-26 20:12 -27.42514 -55.36334 30900 ft 477 kts 36°
2026-04-26 20:12 -27.40253 -55.33662 30495 ft 474 kts 36°
2026-04-26 20:13 -27.37968 -55.30965 30071 ft 471 kts 35°
2026-04-26 20:13 -27.35720 -55.28313 29612 ft 468 kts 36°
2026-04-26 20:13 -27.33469 -55.25656 29139 ft 465 kts 36°
2026-04-26 20:13 -27.31261 -55.23052 28703 ft 461 kts 36°
2026-04-26 20:14 -27.29078 -55.20477 28286 ft 457 kts 36°
2026-04-26 20:14 -27.26883 -55.17890 27870 ft 453 kts 36°
2026-04-26 20:14 -27.24721 -55.15344 27441 ft 450 kts 36°
2026-04-26 20:14 -27.22552 -55.12792 27044 ft 446 kts 36°
2026-04-26 20:15 -27.20434 -55.10302 26636 ft 443 kts 36°
2026-04-26 20:15 -27.18316 -55.07813 26192 ft 441 kts 36°
2026-04-26 20:15 -27.16187 -55.05313 25799 ft 438 kts 36°
2026-04-26 20:15 -27.14099 -55.02862 25394 ft 436 kts 36°
2026-04-26 20:16 -27.12016 -55.00420 24952 ft 435 kts 37°
2026-04-26 20:16 -27.09906 -54.97946 24560 ft 432 kts 37°
2026-04-26 20:16 -27.07837 -54.95522 24149 ft 431 kts 36°
2026-04-26 20:16 -27.05774 -54.93104 23738 ft 428 kts 36°
2026-04-26 20:17 -27.03714 -54.90689 23295 ft 425 kts 37°
2026-04-26 20:17 -27.01692 -54.88324 22842 ft 423 kts 37°
2026-04-26 20:17 -26.99651 -54.85939 22429 ft 420 kts 37°
2026-04-26 20:17 -26.98309 -54.84371 22158 ft 418 kts 37°
2026-04-26 20:18 -26.95644 -54.81257 21633 ft 414 kts 37°
2026-04-26 20:18 -26.93669 -54.78951 21234 ft 412 kts 38°
2026-04-26 20:18 -26.91680 -54.76630 20835 ft 409 kts 38°
2026-04-26 20:18 -26.89725 -54.74350 20449 ft 406 kts 38°
2026-04-26 20:19 -26.87781 -54.72084 20067 ft 404 kts 38°
2026-04-26 20:19 -26.85827 -54.69808 19681 ft 401 kts 38°
2026-04-26 20:19 -26.83909 -54.67575 19282 ft 399 kts 38°
2026-04-26 20:19 -26.81972 -54.65321 18896 ft 397 kts 38°
2026-04-26 20:20 -26.80078 -54.63118 18522 ft 395 kts 39°
2026-04-26 20:20 -26.78164 -54.60893 18122 ft 393 kts 39°
2026-04-26 20:20 -26.76283 -54.58706 17705 ft 390 kts 39°
2026-04-26 20:20 -26.74416 -54.56536 17315 ft 387 kts 39°
2026-04-26 20:21 -26.72542 -54.54361 16941 ft 384 kts 39°
2026-04-26 20:21 -26.70623 -54.52345 16544 ft 374 kts 27°
2026-04-26 20:21 -26.68350 -54.51113 16183 ft 358 kts 12°
2026-04-26 20:21 -26.66028 -54.50239 15821 ft 354 kts 11°
2026-04-26 20:22 -26.63665 -54.49387 15438 ft 352 kts 11°
2026-04-26 20:22 -26.61362 -54.48561 15080 ft 349 kts 11°
2026-04-26 20:22 -26.59043 -54.47722 14731 ft 347 kts 12°
2026-04-26 20:22 -26.56761 -54.46888 14375 ft 346 kts 12°
2026-04-26 20:23 -26.54479 -54.46047 14007 ft 345 kts 12°
2026-04-26 20:23 -26.52213 -54.45209 13656 ft 344 kts 13°
2026-04-26 20:23 -26.49926 -54.44358 13241 ft 342 kts 11°
2026-04-26 20:23 -26.47697 -54.43530 12885 ft 340 kts 12°
2026-04-26 20:24 -26.45445 -54.42693 12532 ft 338 kts 12°
2026-04-26 20:24 -26.43234 -54.41870 12188 ft 336 kts 12°
2026-04-26 20:24 -26.41029 -54.41052 11846 ft 335 kts 12°
2026-04-26 20:24 -26.38826 -54.40234 11486 ft 333 kts 12°
2026-04-26 20:25 -26.36617 -54.39414 11144 ft 331 kts 13°
2026-04-26 20:25 -26.35163 -54.38874 10922 ft 330 kts 13°
2026-04-26 20:25 -26.32278 -54.37804 10478 ft 328 kts 13°
2026-04-26 20:25 -26.30120 -54.37003 10264 ft 323 kts 13°
2026-04-26 20:26 -26.28038 -54.36229 10121 ft 315 kts 13°
2026-04-26 20:26 -26.25967 -54.35461 9970 ft 308 kts 13°
2026-04-26 20:26 -26.23928 -54.34896 9718 ft 299 kts
2026-04-26 20:26 -26.21853 -54.34705 9436 ft 295 kts 357°
2026-04-26 20:27 -26.19824 -54.34605 9156 ft 292 kts 357°
2026-04-26 20:27 -26.17814 -54.34514 8866 ft 290 kts 357°
2026-04-26 20:27 -26.15808 -54.34411 8589 ft 288 kts 358°
2026-04-26 20:27 -26.13788 -54.34295 8316 ft 287 kts 358°
2026-04-26 20:28 -26.11817 -54.34173 8041 ft 285 kts 359°
2026-04-26 20:28 -26.09833 -54.34044 7776 ft 284 kts 359°
2026-04-26 20:28 -26.07866 -54.33912 7495 ft 283 kts 359°
2026-04-26 20:28 -26.05911 -54.33779 7222 ft 281 kts 360°
2026-04-26 20:29 -26.03971 -54.33645 6952 ft 280 kts 360°
2026-04-26 20:29 -26.02038 -54.33511 6689 ft 279 kts
2026-04-26 20:29 -26.00095 -54.33376 6421 ft 277 kts
2026-04-26 20:29 -25.98180 -54.33242 6139 ft 275 kts
2026-04-26 20:30 -25.96274 -54.33109 5862 ft 274 kts
2026-04-26 20:30 -25.94386 -54.32977 5595 ft 273 kts
2026-04-26 20:30 -25.92502 -54.32846 5328 ft 271 kts
2026-04-26 20:30 -25.90625 -54.32714 5051 ft 265 kts
2026-04-26 20:31 -25.88818 -54.32499 4799 ft 261 kts 13°
2026-04-26 20:31 -25.87177 -54.31720 4563 ft 255 kts 24°
2026-04-26 20:31 -25.85583 -54.30867 4304 ft 251 kts 23°
2026-04-26 20:31 -25.84021 -54.30056 4059 ft 245 kts 23°
2026-04-26 20:32 -25.82470 -54.29360 3825 ft 232 kts
2026-04-26 20:32 -25.81030 -54.29652 3715 ft 202 kts 320°
2026-04-26 20:32 -25.80298 -54.30845 3528 ft 180 kts 285°
2026-04-26 20:32 -25.79880 -54.32123 3357 ft 174 kts 288°
2026-04-26 20:33 -25.79419 -54.33362 3182 ft 174 kts 289°
2026-04-26 20:33 -25.78939 -54.34589 3066 ft 174 kts 290°
2026-04-26 20:33 -25.78473 -54.35794 2990 ft 166 kts 289°
2026-04-26 20:33 -25.78050 -54.37005 2679 ft 162 kts 289°
2026-04-26 20:34 -25.77604 -54.38126 2455 ft 157 kts 291°
2026-04-26 20:34 -25.77142 -54.39234 2237 ft 158 kts 292°
2026-04-26 20:34 -25.76679 -54.40334 2011 ft 153 kts 292°
2026-04-26 20:34 -25.76234 -54.41390 1845 ft 154 kts 290°
2026-04-26 20:35 -25.75780 -54.42473 1633 ft 152 kts 294°
2026-04-26 20:35 -25.75339 -54.43518 1436 ft 151 kts 294°
2026-04-26 20:35 -25.74887 -54.44593 1238 ft 154 kts 294°
2026-04-26 20:35 -25.74433 -54.45670 999 ft 155 kts 295°
2026-04-26 20:36 -25.73994 -54.46710 928 ft 135 kts 295°
2026-04-26 20:36 -25.73693 -54.47431 927 ft 65 kts 295°
2026-04-26 20:36 -25.73550 -54.47771 928 ft 42 kts 295°
2026-04-26 20:36 -25.73452 -54.47985 931 ft 23 kts 310°
2026-04-26 20:37 -25.73338 -54.48088 928 ft 17 kts 324°
2026-04-26 20:37 -25.73262 -54.48095 926 ft 12 kts 30°
2026-04-26 20:37 -25.73235 -54.48026 928 ft 10 kts 83°
2026-04-26 20:37 -25.73229 -54.47950 926 ft 10 kts 84°
2026-04-26 20:38 -25.73222 -54.47876 926 ft 9 kts 84°
2026-04-26 20:38 -25.73225 -54.47804 928 ft 9 kts 108°
2026-04-26 20:38 -25.73251 -54.47741 928 ft 9 kts 115°
2026-04-26 20:38 -25.73265 -54.47699 926 ft 2 kts 77°
2026-04-26 20:39 -25.73252 -54.47690 929 ft 2 kts 28°
2026-04-26 20:39 -25.73242 -54.47684 927 ft 3 kts 26°
2026-04-26 20:39 -25.73228 -54.47676 926 ft 1 kts 26°
2026-04-26 20:39 -25.73225 -54.47675 927 ft 0 kts 26°